Location: Oriwa
(40.7500°S, 175.3333°E)
Time: 14:12:52
(UTC+00:00)

ATLAS 5 CENTAUR R/B - Pass Details

Date: 03 February 2023
Orbit: 460 x 1178 km, 63.3° (Epoch: 24 March)

Event Time Altitude Azimuth Distance (km) Brightness Sun altitude
Exits shadow 15:52:36 22° 295° (WNW) 2,331 3.9 -16.4°
Maximum altitude 15:57:27 50° 229° (SW) 1,430 3.3 -15.7°
Drops below altitude 10° 16:04:18 10° 154° (SSE) 2,894 6.0 -14.6°
Sets 16:06:55 0° 148° (SSE) 3,761 7.0 -14.2°
